Weather History for Cincinnati, OH

Change the Weather History Date:

Tuesday, October 8, 2013

  Actual Average Record
Temperature  
Mean Temperature 55 °F -  
Max Temperature 68 °F 69 °F 91 °F (2007)
Min Temperature 42 °F 46 °F 33 °F (1974)
Degree Days  
Heating Degree Days 10    
Growing Degree Days 5 (Base 50)    
Moisture  
Dew Point 46 °F    
Average Humidity 87    
Maximum Humidity 100    
Minimum Humidity 40    
Precipitation  
Precipitation 0.01 in - - ()
Sea Level Pressure  
Sea Level Pressure 30.24 in    
Wind  
Wind Speed 2 mph (NE)    
Max Wind Speed 9 mph    
Max Gust Speed 18 mph    
Visibility 5 miles    
Events Fog    
Averages and records for this station are not official NWS values.
T = Trace of Precipitation, MM = Missing Value Source: NWS Daily Summary

Daily Weather History Graph

Daily Weather History Graph

Search for Another Location

Airport:

Trip Planner

Search our weather history database for the weather conditions in past years. The results will help you decide how hot, cold, wet, or windy it might be!

Date:

Astronomy

Oct. 08, 2013 Rise Set
Actual Time 7:40 AM EDT 7:09 PM EDT
Civil Twilight 7:13 AM EDT 7:35 PM EDT
Nautical Twilight 6:42 AM EDT 8:06 PM EDT
Astronomical Twilight 6:11 AM EDT 8:37 PM EDT
Moon 11:32 AM EDT (10/8) 9:46 PM EDT (10/8)
Length of Visible Light 12h 21m
Length of Day
11h 28m
Waxing Crescent, 16% of the Moon is Illuminated
Oct 8
Waxing Crescent
Oct 11
First Quarter
Oct 18
Full
Oct 26
Last Quarter
Nov 3
New

Hourly Weather History & Observations

Time (EDT) Temp. Windchill Dew Point Humidity Pressure Visibility Wind Dir Wind Speed Gust Speed Precip Events Conditions
12:18 AM 46.4 °F - 46.4 °F 100% 30.19 in 1.5 mi Calm Calm - N/A   Clear
12:28 AM 46.4 °F - 46.4 °F 100% 30.19 in 4.0 mi Calm Calm - N/A   Clear
12:53 AM 46.0 °F - 46.0 °F 100% 30.19 in 6.0 mi Calm Calm - N/A   Clear
1:10 AM 44.6 °F - 44.6 °F 100% 30.19 in 1.2 mi Calm Calm - N/A   Clear
1:12 AM 44.6 °F - 42.8 °F 93% 30.19 in 0.8 mi Calm Calm - N/A   Mist
1:23 AM 44.6 °F - 44.6 °F 100% 30.20 in 1.2 mi Calm Calm - N/A   Partly Cloudy
1:26 AM 44.6 °F - 44.6 °F 100% 30.20 in 3.0 mi Calm Calm - N/A   Partly Cloudy
1:53 AM 45.0 °F - 45.0 °F 100% 30.20 in 1.0 mi Calm Calm - N/A   Mist
2:00 AM 44.6 °F 43.1 °F 44.6 °F 100% 30.20 in 0.5 mi NE 3.5 mph - N/A Fog Fog
2:12 AM 42.8 °F 41.1 °F 42.8 °F 100% 30.20 in 0.2 mi NE 3.5 mph - N/A Fog Fog
2:53 AM 45.0 °F 43.5 °F 45.0 °F 100% 30.21 in 0.2 mi NE 3.5 mph - N/A Fog Fog
3:53 AM 45.0 °F - 45.0 °F 100% 30.21 in 0.2 mi Calm Calm - N/A Fog Fog
4:53 AM 44.1 °F 42.5 °F 44.1 °F 100% 30.22 in 0.2 mi NE 3.5 mph - N/A Fog Fog
5:53 AM 45.0 °F 43.5 °F 45.0 °F 100% 30.22 in 0.2 mi ENE 3.5 mph - 0.01 in Fog Fog
6:53 AM 44.1 °F - 44.1 °F 100% 30.25 in 0.2 mi Calm Calm - N/A Fog Fog
7:53 AM 43.0 °F - 43.0 °F 100% 30.27 in 0.2 mi Calm Calm - N/A Fog Fog
8:53 AM 44.1 °F - 44.1 °F 100% 30.30 in 0.2 mi Calm Calm - N/A Fog Fog
9:29 AM 46.4 °F 45.2 °F 46.4 °F 100% 30.30 in 1.0 mi NE 3.5 mph - N/A   Mist
9:42 AM 46.4 °F 45.2 °F 46.4 °F 100% 30.30 in 2.0 mi NNE 3.5 mph - N/A   Scattered Clouds
9:53 AM 48.0 °F - 48.0 °F 100% 30.31 in 4.0 mi North 3.5 mph - N/A   Scattered Clouds
10:15 AM 50.0 °F - 48.2 °F 94% 30.30 in 10.0 mi Calm Calm - N/A   Clear
10:53 AM 55.9 °F - 48.9 °F 77% 30.30 in 10.0 mi Variable 3.5 mph - N/A   Clear
11:53 AM 62.1 °F - 48.0 °F 60% 30.29 in 10.0 mi ENE 9.2 mph - N/A   Clear
12:53 PM 64.0 °F - 45.0 °F 50% 30.28 in 10.0 mi NE 9.2 mph - N/A   Clear
1:53 PM 66.0 °F - 44.1 °F 45% 30.26 in 10.0 mi Variable 5.8 mph 18.4 mph N/A   Clear
2:53 PM 66.9 °F - 44.1 °F 44% 30.24 in 10.0 mi NNE 4.6 mph - N/A   Clear
3:53 PM 68.0 °F - 44.1 °F 42% 30.22 in 10.0 mi Variable 6.9 mph - N/A   Clear
4:53 PM 68.0 °F - 43.0 °F 40% 30.21 in 10.0 mi ENE 5.8 mph - N/A   Clear
5:53 PM 66.9 °F - 46.9 °F 49% 30.21 in 10.0 mi NE 5.8 mph - N/A   Clear
6:53 PM 62.1 °F - 50.0 °F 65% 30.22 in 10.0 mi Calm Calm - N/A   Clear
7:53 PM 53.1 °F - 48.0 °F 83% 30.22 in 10.0 mi Calm Calm - N/A   Clear
8:53 PM 51.1 °F - 48.9 °F 92% 30.23 in 10.0 mi NE 4.6 mph - N/A   Clear
9:53 PM 48.9 °F - 48.0 °F 97% 30.24 in 10.0 mi Calm Calm - N/A   Clear
10:53 PM 48.0 °F - 46.9 °F 96% 30.25 in 10.0 mi Calm Calm - N/A   Clear
11:46 PM 46.4 °F 45.2 °F 46.4 °F 100% 30.25 in 1.8 mi ENE 3.5 mph - N/A   Clear
11:53 PM 46.0 °F - 46.0 °F 100% 30.25 in 1.8 mi Calm Calm - N/A   Clear
11:55 PM 46.4 °F - 44.6 °F 93% 30.24 in 3.0 mi Calm Calm - N/A   Clear